Lynchburg, VA

7:12 AM EST on November 17, 2019 (GMT -0500)
Lynchburg Regional-Glenn

Weather History for KLYH - September, 2019

Change the Weather History Date:

Saturday, September 28, 2019

  Actual Average Record
Temperature  
Mean Temperature 78 °F 62 °F  
Max Temperature 89 °F 74 °F 93 °F (1936)
Min Temperature 67 °F 51 °F 38 °F (1989)
Degree Days  
Heating Degree Days 0 4  
Month to date heating degree days 5 45  
Since 1 July heating degree days 5 48  
Cooling Degree Days 13 2  
Month to date cooling degree days 274 115  
Year to date cooling degree days 1489 1013  
Growing Degree Days 26 (Base 50)    
Moisture  
Dew Point 68 °F    
Average Humidity 80    
Maximum Humidity 100    
Minimum Humidity 59    
Precipitation  
Precipitation 0.00 in 0.12 in 1.92 in (2004)
Month to date precipitation 0.06 3.63  
Year to date precipitation 27.64 31.56  
Snow  
Snow 0.00 in - - ()
Month to date snowfall 0.0  
Since 1 July snowfall 0.0  
Since 1 September snowfall 0.0  
Snow Depth 0.00 in    
Sea Level Pressure  
Sea Level Pressure 30.11 in    
Wind  
Wind Speed 3 mph (SSW)    
Max Wind Speed 15 mph    
Max Gust Speed 20 mph    
Visibility 10 miles    
Events      
T = Trace of Precipitation, MM = Missing Value Source: NWS Daily Summary

Daily Weather History Graph

Daily Weather History Graph

Search for Another Location

Airport or City:

Astronomy

Sep. 28, 2019 Rise Set
Actual Time 7:09 AM EDT 7:04 PM EDT
Civil Twilight 6:43 AM EDT 7:30 PM EDT
Nautical Twilight 6:13 AM EDT 8:01 PM EDT
Astronomical Twilight 5:42 AM EDT 8:31 PM EDT
Moon 6:45 AM EDT (9/28) 7:28 PM EDT (9/28)
Length of Visible Light 12h 47m
Length of Day
11h 55m
Waning Crescent, 0% of the Moon is Illuminated
Sep 28
Waning Crescent
Sep 28
New
Oct 5
First Quarter
Oct 13
Full
Oct 21
Last Quarter

Hourly Weather History & Observations

Time (EDT) Temp. Heat Index Dew Point Humidity Pressure Visibility Wind Dir Wind Speed Gust Speed Precip Events Conditions
12:54 AM 71.1 °F - 64.9 °F 81% 30.08 in 10.0 mi South 3.5 mph - N/A   Clear
1:24 AM 70.0 °F - 64.9 °F 84% 30.11 in 10.0 mi Calm Calm - N/A   Mostly Cloudy
1:33 AM 71.1 °F - 64.9 °F 81% 30.11 in 10.0 mi NW 3.5 mph - N/A   Overcast
1:54 AM 71.1 °F - 66.0 °F 84% 30.07 in 10.0 mi Calm Calm - N/A   Overcast
2:15 AM 72.0 °F - 66.0 °F 81% 30.10 in 10.0 mi Calm Calm - N/A   Overcast
2:54 AM 71.1 °F - 66.0 °F 84% 30.07 in 10.0 mi Calm Calm - N/A   Overcast
3:54 AM 71.1 °F - 66.0 °F 84% 30.07 in 10.0 mi Calm Calm - N/A   Overcast
4:54 AM 70.0 °F - 66.0 °F 87% 30.09 in 10.0 mi SSW 3.5 mph - N/A   Mostly Cloudy
5:07 AM 69.1 °F - 66.0 °F 90% 30.12 in 10.0 mi South 3.5 mph - N/A   Mostly Cloudy
5:54 AM 70.0 °F - 66.0 °F 87% 30.08 in 10.0 mi Calm Calm - N/A   Mostly Cloudy
6:37 AM 68.0 °F - 66.0 °F 93% 30.12 in 10.0 mi Calm Calm - N/A   Overcast
6:54 AM 68.0 °F - 66.0 °F 93% 30.09 in 10.0 mi Calm Calm - N/A   Scattered Clouds
7:22 AM 66.9 °F - 66.0 °F 97% 30.14 in 10.0 mi Calm Calm - N/A   Mostly Cloudy
7:54 AM 68.0 °F - 66.0 °F 93% 30.12 in 9.0 mi Calm Calm - N/A   Mostly Cloudy
8:11 AM 70.0 °F - 66.9 °F 90% 30.14 in 10.0 mi Calm Calm - N/A   Mostly Cloudy
8:35 AM 71.1 °F - 66.9 °F 87% 30.15 in 10.0 mi Calm Calm - N/A   Scattered Clouds
8:54 AM 73.0 °F - 68.0 °F 84% 30.13 in 10.0 mi SSW 4.6 mph - N/A   Partly Cloudy
9:54 AM 73.9 °F - 68.0 °F 82% 30.14 in 10.0 mi Variable 4.6 mph - N/A   Mostly Cloudy
10:54 AM 79.0 °F - 69.1 °F 72% 30.14 in 10.0 mi SSW 6.9 mph - N/A   Partly Cloudy
11:54 AM 84.0 °F 88.4 °F 70.0 °F 63% 30.12 in 10.0 mi Variable 4.6 mph - N/A   Clear
12:54 PM 84.9 °F 90.1 °F 71.1 °F 63% 30.12 in 10.0 mi South 13.8 mph - N/A   Clear
1:54 PM 87.1 °F 92.8 °F 71.1 °F 59% 30.09 in 10.0 mi South 9.2 mph - N/A   Clear
2:54 PM 86.0 °F 91.5 °F 71.1 °F 61% 30.08 in 10.0 mi SSW 9.2 mph - N/A   Clear
3:54 PM 84.0 °F 89.0 °F 71.1 °F 65% 30.09 in 10.0 mi SSW 10.4 mph - N/A   Clear
4:54 PM 84.9 °F 90.1 °F 71.1 °F 63% 30.09 in 10.0 mi WSW 4.6 mph - N/A   Clear
5:54 PM 82.9 °F 87.5 °F 71.1 °F 67% 30.10 in 10.0 mi SSW 3.5 mph - N/A   Clear
6:54 PM 82.0 °F 86.7 °F 72.0 °F 71% 30.11 in 10.0 mi WSW 3.5 mph - N/A   Clear
7:54 PM 77.0 °F - 72.0 °F 84% 30.10 in 10.0 mi Calm Calm - N/A   Clear
8:54 PM 75.9 °F - 72.0 °F 87% 30.12 in 10.0 mi Calm Calm - N/A   Clear
9:54 PM 72.0 °F - 71.1 °F 97% 30.12 in 10.0 mi Calm Calm - N/A   Clear
10:54 PM 72.0 °F - 71.1 °F 97% 30.13 in 7.0 mi Calm Calm - N/A   Clear
11:54 PM 69.1 °F - 68.0 °F 96% 30.14 in 2.5 mi Calm Calm - N/A   Clear